Regional Weather Roundup
Issued by NWS

Home | Current Version | Previous Version | Text Only | Print | Product List | Glossary Off
Versions: 1 2 3 4 5 6 7 8 9 10 11 12 13 14 15 16 17 18 19 20 21 22 23 24 25 26 27 28 29 30 31 32 33 34 35 36 37 38 39 40 41 42 43 44 45 46 47 48 49 50

000
ASUS43 KBIS 210610
RWRND

NORTH DAKOTA REGIONAL WEATHER ROUNDUP
NATIONAL WEATHER SERVICE BISMARCK ND
100 AM CDT THU AUG 21 2014

NOTE: "FAIR" INDICATES FEW OR NO CLOUDS BELOW 12,000 FEET WITH NO
SIGNIFICANT WEATHER AND/OR OBSTRUCTIONS TO VISIBILITY.


NDZ001>003-009>011-017-210700-
NORTHWEST NORTH DAKOTA

CITY           SKY/WX    TMP DP  RH WIND       PRES   REMARKS
WILLISTON      CLEAR     62  60  93 CALM      29.80R
6HR MIN TEMP:  62; 6HR MAX TEMP:  73;

MINOT          CLOUDY    64  63  96 N7        29.77R
MINOT AFB      DRIZZLE   65  65 100 N3        29.77S
$$

NDZ018>021-031>035-040>046-210700-
SOUTHWEST NORTH DAKOTA

CITY           SKY/WX    TMP DP  RH WIND       PRES   REMARKS
BISMARCK       MOCLDY    69  68  96 CALM      29.73S
6HR MIN TEMP:  68; 6HR MAX TEMP:  73; 6HR PCP:  0.12;

DICKINSON      CLEAR     60  59  96 W5        29.80S
GARRISON         N/A     66  65  96 NE5       29.76S
6HR MIN TEMP:  66; 6HR MAX TEMP:  71; 6HR PCP:  0.58;

HETTINGER ARPT CLEAR     57  55  93 W7        29.83R
$$

NDZ004>008-012>016-024-026-027-054-210700-
NORTHEAST NORTH DAKOTA

CITY           SKY/WX    TMP DP  RH WIND       PRES   REMARKS
GRAND FORKS    FAIR      71  66  84 SE9       29.78F
GRND FRKS AFB  FAIR      70  70  99 SE9       29.78F
DEVILS LAKE    CLOUDY    72  64  78 SE14      29.73F
$$

NDZ022-023-025-028>030-036>039-047>053-210700-
SOUTHEAST NORTH DAKOTA

CITY           SKY/WX    TMP DP  RH WIND       PRES   REMARKS
FARGO          FAIR      72  67  84 E8        29.75F
6HR MIN TEMP:  72; 6HR MAX TEMP:  81;

JAMESTOWN      LGT RAIN  70  69  97 E23G31    29.66F
$$




USA.gov is the U.S. government's official web portal to all federal, state and local government web resources and services.